Flag for U.S.A. Weather past 2 weeks in Lansing, Michigan, U.S.A.

Now
59 °F

Clear.


Feels Like: 58 °F
Forecast: 54 / 72 °F
Wind: 8 mph from South

Location: Capital City Airport

Current Time: Sep 19, 2014 at 10:02:33 PM

Latest Report: Sep 19, 2014 at 8:53 PM


Visibility: 10 mi

Pressure: 30.06 "Hg

Humidity: 69%

Dew point: 49 °F

Location of LansingLocation

Historic Weather in Lansing — Graph

°F

Lansing temperature yesterday

Maximum temperature yesterday: 62 °F (at 1:53 PM)
Minimum temperature yesterday: 42 °F (at 5:53 AM)
Average temperature yesterday: 52 °F

Past Weeks' High & Low Weather Summary

 TemperatureHumidityPressure
High88 °F (Sep 5, 3:53 PM)100% (Sep 16, 8:53 AM)30.36 "Hg (Sep 16, 8:53 AM)
Low41 °F (Sep 17, 4:53 AM)42% (Sep 7, 4:53 PM)29.53 "Hg (Sep 10, 4:53 PM)
Average59 °F77%30.11 "Hg
* Reported Sep 4 8:53 PM — Sep 19 8:53 PM, Lansing, Weather by CustomWeather, © 2014

Note: Actual official high and low records may vary slightly from our data, if they occured in-between our weather recording intervals... More about our weather records

Advertising

Lansing weather history for previous 24 hours

 ConditionsComfort  
Time TempWeatherWind HumidityBarometerVisibility
8:53 PM
Sep 19
59 °FClear.8 mph69%30.06 "Hg10 mi
7:53 PM62 °FSunny.9 mph62%30.06 "Hg10 mi
6:53 PM66 °FSunny.12 mph52%30.07 "Hg10 mi
5:53 PM67 °FSunny.9 mph53%30.09 "Hg10 mi
4:53 PM68 °FSunny.12 mph51%30.11 "Hg10 mi
3:53 PM68 °FPassing clouds.7 mph49%30.15 "Hg10 mi
2:53 PM68 °FScattered clouds.8 mph51%30.16 "Hg10 mi
1:53 PM66 °FPassing clouds.N/A56%30.19 "Hg10 mi
12:53 PM64 °FSunny.6 mph61%30.20 "Hg10 mi
11:53 AM61 °FSunny.8 mph65%30.23 "Hg10 mi
10:53 AM57 °FSunny.9 mph69%30.25 "Hg10 mi
9:53 AM54 °FSunny.7 mph77%30.27 "Hg10 mi
8:53 AM50 °FSunny.5 mph80%30.27 "Hg10 mi
7:53 AM42 °FFog.3 mph92%30.27 "Hg6 mi
6:53 AM42 °FClear.3 mph92%30.25 "Hg8 mi
5:53 AM44 °FClear.3 mph89%30.24 "Hg9 mi
4:53 AM45 °FClear.5 mph90%30.24 "Hg9 mi
3:53 AM45 °FClear.6 mph90%30.24 "Hg10 mi
2:53 AM46 °FClear.6 mph89%30.25 "Hg10 mi
1:53 AM46 °FClear.6 mph93%30.25 "Hg8 mi
12:53 AM45 °FClear.5 mph93%30.24 "Hg8 mi
11:53 PM
Sep 18
46 °FClear.5 mph93%30.23 "Hg7 mi
10:53 PM48 °FClear.3 mph89%30.23 "Hg8 mi
Weather by CustomWeather, © 2014

See weather overviewHow to use our weather pages